Starlink 11537

operational
NORAD ID: 62911 Int'l Des: 2025-027 Owner: SPXS Country: US Constellation: starlink
LEOCIRCULAR

About Starlink 11537

Description loading...

Live Position

Loading 3D Globe...

Upcoming Passes

Altitude History

Altitude vs Time

uPlot chart will show altitude changes over time

Two-Line Element Set

1 62911U 25027E 25257.44942856 .00122191 00000-0 94055-3 0 9990
2 62911 43.0031 330.0255 0001410 231.1403 128.9339 15.70872304 35471
Epoch: Sep 14, 2025 • Age: 18 hours

Current Status

Altitude 366.8 km
Velocity 7.69 km/s
Sub-Earth Point -38.47°S, 159.1°W
Launch Date Feb 8, 2025
Age 0.5 years
Type internet

Technical Details

Classification Payload
Mass 960.00 kg
Dry Mass 910.00 kg
Total Mass 960.00 kg
Length 0.30 m
Diameter 4.10 m
Span 29.00 m
Shape Box + pan
Manufacturer SPXS
Bus Type Starlink V2MD
Phase Status In Orbit
Owner/State SPXS/US

Large Constellations

Loading constellations...